Theta_e
338 343 345 345 345 345 346 347 347 346 346 346 346 345 342 340 338 336 335 334 333 331 331 330 330 330 331 333 333 335 336 338 339 341 344 344 344 343 342 341 343 341 343
340 343 344 344 344 345 345 346 346 345 346 345 343 341 339 337 335 333 331 331 330 329 329 329 328 328 327 327 329 330 331 331 332 333 338 341 340 341 340 339 339 339 343
341 343 344 345 344 344 345 345 345 345 344 343 341 339 336 334 331 330 329 328 328 328 328 328 326 325 324 323 324 325 325 325 325 328 334 336 335 337 337 336 336 337 339
342 342 342 342 344 344 343 343 343 343 341 340 338 335 333 330 329 327 327 327 327 327 327 326 325 324 322 321 320 320 320 320 321 326 331 332 332 333 333 332 332 333 334
341 342 342 341 342 342 342 341 341 340 338 336 334 333 331 328 326 325 325 325 324 325 324 323 323 321 320 319 319 317 317 315 317 324 326 326 329 329 329 328 327 328 329
336 340 340 341 342 341 340 338 337 336 334 332 330 329 327 325 324 324 324 323 323 322 321 321 320 319 318 317 316 315 313 313 316 313 317 321 323 325 326 325 325 325 326
328 329 330 337 338 338 336 335 333 331 330 328 325 325 324 323 323 322 322 321 320 320 318 317 317 316 316 315 313 312 311 309 307 310 312 315 320 322 324 324 324 325 325
323 325 325 325 330 332 331 330 328 326 325 323 323 322 322 321 320 320 319 318 317 317 316 315 313 313 313 313 311 310 309 309 307 307 310 314 317 321 322 322 323 323 324
321 320 321 321 322 322 323 324 322 321 320 319 318 317 317 316 316 315 314 314 314 314 313 311 310 309 309 310 309 307 306 306 306 306 308 312 317 319 321 321 322 322 323
318 318 318 317 319 319 317 318 317 315 314 312 311 311 310 310 309 309 310 310 310 311 310 309 308 307 306 306 306 305 305 306 305 305 308 311 316 318 319 320 320 321 321
316 316 316 316 317 316 314 312 314 311 310 309 307 305 305 307 307 307 305 306 306 307 306 306 306 304 304 303 302 303 305 305 304 305 307 310 314 317 318 319 319 320 320
313 314 313 314 312 313 310 309 307 305 306 306 306 306 307 306 304 304 303 301 302 301 301 302 302 303 306 304 304 305 304 304 304 304 305 310 313 316 317 318 319 318 318
317 316 316 314 312 311 308 307 307 307 307 308 307 307 306 306 306 306 305 304 305 303 303 303 302 302 303 303 302 303 303 303 303 304 304 310 312 315 317 318 317 316 316
319 319 316 313 310 309 309 307 307 307 308 308 307 306 307 306 306 304 304 304 304 303 302 302 302 302 302 302 302 302 302 302 302 303 305 309 312 315 316 315 315 315 314
318 318 317 316 311 308 307 307 306 306 306 306 305 304 305 304 304 303 303 303 303 302 301 301 301 301 302 302 302 301 301 302 302 303 306 310 312 314 314 313 312 311 311
318 318 318 315 312 309 307 307 307 306 305 304 304 304 303 304 304 303 302 302 303 302 301 300 300 300 301 302 301 301 301 303 303 304 306 308 309 309 309 308 307 307 308
317 318 317 316 314 310 308 308 307 307 306 305 305 304 304 303 303 303 303 303 302 302 301 301 300 301 301 301 301 301 302 303 303 304 305 307 306 304 304 303 303 304 306
308 309 311 315 313 312 310 309 308 307 307 306 306 305 304 304 303 303 303 303 303 302 301 300 299 299 300 300 300 300 301 302 303 303 304 303 303 302 301 299 300 301 303
305 305 306 309 313 312 311 308 307 307 306 306 305 305 305 304 303 303 302 303 302 301 301 300 299 299 298 300 299 299 301 302 301 300 302 302 302 302 301 299 297 297 298
305 305 305 306 309 312 310 308 307 306 306 306 305 305 305 304 303 303 303 302 301 301 300 299 299 299 298 298 297 297 300 302 301 301 301 300 301 300 300 300 301 300 298
304 304 304 305 306 310 308 306 305 304 305 304 304 305 304 304 303 303 302 301 301 300 299 298 298 297 297 298 298 301 300 300 301 301 301 300 300 300 299 299 299 300 299
302 303 303 304 305 308 308 307 307 306 306 305 305 304 304 304 304 303 302 302 301 300 300 299 298 296 297 297 294 296 295 297 298 299 301 299 300 300 299 299 299 299 299
300 300 301 303 304 306 306 305 304 303 303 302 302 302 302 303 303 302 302 301 301 300 299 299 298 296 295 297 296 293 293 293 295 299 298 299 298 298 299 299 299 298 298
298 301 301 302 303 303 304 303 302 301 301 303 303 303 302 301 301 300 300 300 300 300 298 299 298 297 296 294 297 295 296 294 290 291 297 297 297 296 298 298 298 298 298
298 299 301 301 302 302 302 302 302 302 303 303 302 301 301 300 300 299 299 299 298 298 298 298 298 297 297 295 295 295 295 294 294 290 288 292 297 298 298 298 298 297 298
298 298 299 299 300 300 301 302 301 301 302 301 301 300 300 299 299 297 296 295 295 295 295 296 297 297 296 296 296 295 294 292 292 292 290 291 292 294 297 297 296 297 297
Wind_Speed
4 4 5 2 4 6 7 8 12 12 13 15 16 17 16 15 15 14 12 12 12 12 12 12 13 12 12 12 12 12 12 10 11 12 16 16 15 16 16 17 16 12 12
4 2 5 2 3 5 8 11 14 15 17 17 17 16 14 14 14 12 12 11 12 12 12 13 13 13 13 12 12 12 12 12 12 10 6 11 16 15 15 15 15 13 15
6 3 7 3 4 8 11 13 14 17 16 15 16 15 14 14 12 11 11 11 12 11 12 12 12 13 13 12 12 11 11 11 11 9 10 2 11 14 14 13 12 12 13
4 3 6 8 9 11 13 14 15 15 14 15 16 15 15 13 11 11 11 11 11 12 11 11 12 12 12 12 12 11 11 10 10 12 4 6 7 13 12 12 12 13 13
6 7 10 9 12 15 15 15 15 15 14 12 13 15 14 13 11 11 11 11 11 11 11 11 11 11 12 11 11 11 11 10 9 7 5 7 7 10 10 11 11 11 11
11 11 9 9 14 15 16 15 16 15 14 13 12 12 14 12 11 11 11 10 10 11 11 11 10 11 11 11 11 11 11 12 15 5 5 5 9 9 9 10 10 10 10
10 11 13 16 14 16 17 16 15 14 14 12 10 11 13 11 11 10 10 10 10 10 10 10 10 10 11 10 10 10 11 11 8 5 5 6 9 8 8 9 9 9 9
9 10 12 17 17 14 16 15 14 14 13 11 11 11 12 11 10 10 10 9 9 10 10 10 10 10 9 9 10 11 11 11 4 5 4 4 8 7 7 8 9 9 9
9 9 9 9 11 17 17 15 13 13 12 11 11 10 11 10 10 10 10 9 9 9 9 9 9 9 8 8 8 8 8 10 7 4 4 6 9 7 7 8 8 9 10
8 8 8 7 7 7 8 13 11 10 11 10 9 9 8 9 7 8 7 9 9 9 8 9 8 8 6 6 7 8 8 10 5 3 3 6 8 6 6 7 7 9 9
6 5 6 5 6 7 6 6 7 8 10 7 6 3 3 3 3 6 8 8 8 7 7 8 8 7 7 4 1 5 10 4 4 3 3 7 7 5 5 6 6 8 9
3 3 3 5 5 4 4 4 4 4 2 3 2 2 3 3 4 4 4 3 4 4 1 4 5 6 5 5 3 4 3 5 3 3 5 6 6 4 5 4 8 9 9
4 4 3 5 5 4 4 4 2 1 1 2 3 2 1 1 1 1 1 2 3 2 4 5 4 4 5 5 5 4 5 4 3 2 6 6 4 2 4 7 9 8 8
4 3 3 3 3 3 2 3 1 2 1 1 1 1 1 0 1 2 2 2 3 3 4 4 3 3 4 4 4 5 4 4 3 2 5 6 6 3 7 8 8 9 8
3 2 4 4 4 3 3 1 1 1 2 1 1 1 1 1 0 1 1 2 2 3 3 3 4 4 4 4 4 4 4 3 3 1 4 5 5 7 8 8 8 8 9
3 3 3 4 4 3 3 3 3 2 2 3 2 2 2 2 2 2 1 2 2 2 3 3 4 4 4 3 4 3 3 2 2 2 3 4 6 7 6 6 7 8 9
5 5 5 5 5 5 6 5 4 3 3 4 4 4 3 3 3 3 2 2 2 3 4 4 4 4 4 3 4 3 3 2 3 3 3 5 6 5 4 5 8 8 7
6 6 7 5 6 7 6 5 5 4 5 4 4 4 4 4 4 4 3 2 3 3 4 4 4 4 4 4 4 3 3 3 3 2 3 3 2 4 5 3 7 7 8
7 8 8 8 9 8 7 5 6 5 5 4 4 4 5 4 4 4 3 2 3 3 3 4 4 4 5 4 5 4 3 4 4 3 4 4 3 3 1 2 3 3 5
8 8 9 8 9 8 6 6 5 5 6 5 5 5 5 5 5 4 3 3 3 4 3 3 4 4 4 5 6 4 4 4 4 3 4 4 4 3 3 3 4 1 4
8 9 10 10 9 6 6 6 6 6 6 6 5 6 6 5 6 6 5 4 4 4 3 4 4 4 4 4 5 3 4 5 5 5 4 5 5 5 3 4 3 3 3
9 10 11 10 9 6 6 5 6 4 4 5 4 5 6 6 6 6 6 5 4 4 4 4 3 4 3 1 3 4 3 4 5 6 5 5 5 4 5 6 4 5 4
10 11 11 11 9 7 7 5 4 3 3 4 5 5 5 5 5 6 6 5 5 4 4 4 3 3 4 2 2 3 3 1 2 4 6 5 5 4 5 5 6 5 6
9 9 10 9 8 5 6 7 9 7 7 6 4 4 4 5 5 4 4 5 5 4 5 4 3 4 3 5 1 3 3 3 3 3 4 6 4 5 5 5 5 6 6
8 9 9 9 8 7 7 8 8 9 7 5 4 5 6 5 5 4 4 4 5 4 4 5 5 5 4 5 4 3 4 4 5 5 5 5 2 4 4 4 4 6 7
9 10 10 10 9 7 8 9 10 11 10 7 7 6 6 5 5 5 4 4 4 4 4 4 4 6 5 6 5 5 5 5 4 5 6 8 8 6 5 4 6 5 5
Wind_Direction
73 85 64 50 171 168 172 133 112 104 102 96 92 85 79 76 75 69 63 60 59 55 52 52 51 46 44 43 37 30 34 32 34 38 62 54 56 60 50 37 31 42 40
313 90 76 61 168 171 152 130 121 108 99 100 93 86 85 74 69 69 68 63 59 57 53 49 49 47 39 36 38 41 30 24 20 13 25 82 53 49 50 41 37 27 33
301 156 129 90 136 142 125 118 112 107 108 101 98 95 87 80 73 67 65 62 60 59 57 54 50 47 41 37 33 35 35 26 12 347 312 119 71 31 36 38 39 28 24
320 66 92 95 112 108 93 85 89 100 104 107 106 97 90 87 82 73 66 60 58 55 54 52 52 49 43 37 34 28 25 21 0 326 12 7 69 40 30 24 31 27 17
49 70 94 104 107 93 91 89 90 90 87 93 97 104 101 93 85 79 72 66 56 53 51 48 46 44 45 39 32 26 20 6 332 311 26 20 12 48 30 30 27 29 26
42 51 76 91 99 97 95 89 88 87 87 82 83 88 90 86 82 76 71 64 59 51 47 44 42 41 38 34 34 26 18 359 318 21 19 50 47 20 28 32 32 33 27
56 49 49 64 81 92 89 89 88 85 83 82 83 84 85 84 78 74 68 62 53 51 46 42 38 35 33 28 26 23 17 352 345 17 21 22 41 14 29 27 26 30 31
52 56 59 49 63 71 83 88 89 89 87 86 78 72 80 81 80 71 63 57 53 50 41 37 37 34 27 25 22 14 5 349 312 21 22 50 9 11 28 33 29 30 35
53 57 56 59 65 66 63 69 80 85 84 86 83 78 76 68 72 71 59 53 48 43 43 39 34 29 25 22 16 11 353 329 318 18 347 40 359 13 28 33 35 41 37
64 64 59 56 60 70 70 64 75 86 88 86 84 87 92 94 88 64 73 46 46 39 36 29 24 19 11 21 13 354 315 289 2 22 36 26 349 13 34 42 43 41 40
71 63 83 78 91 84 88 85 93 83 94 90 88 110 205 53 65 78 58 45 38 37 29 23 12 359 329 239 71 329 294 16 351 10 39 6 347 16 48 54 49 47 35
98 101 123 138 147 142 110 118 110 103 34 74 77 347 34 55 40 54 84 68 46 354 359 3 347 315 305 345 350 246 1 349 338 11 65 1 339 23 49 63 50 39 33
162 166 168 153 154 167 152 169 164 166 157 162 139 111 69 77 10 16 13 9 351 9 355 346 354 5 358 344 347 342 344 326 334 2 65 360 354 48 83 58 48 39 34
216 173 169 177 193 186 188 221 172 197 192 197 81 46 267 359 1 353 6 356 343 352 341 345 341 332 336 338 331 333 331 318 333 319 94 0 340 43 70 60 43 30 24
247 203 201 197 204 199 214 183 215 221 223 99 158 68 325 351 330 324 357 339 323 322 347 337 329 323 314 320 313 313 301 289 275 234 102 21 14 74 73 57 36 20 7
260 261 241 231 223 211 238 219 222 208 180 214 205 175 177 233 232 230 248 273 294 330 335 318 323 312 301 305 304 309 303 285 224 198 159 110 70 68 74 50 21 4 353
311 307 276 259 230 230 228 221 221 216 217 217 201 207 210 230 235 263 253 291 332 326 302 306 308 294 288 293 294 281 286 260 195 173 190 162 143 106 84 37 3 359 2
323 306 303 260 242 233 232 223 222 218 226 220 215 214 216 229 247 247 264 288 328 309 319 320 314 307 299 304 314 299 249 221 198 195 205 200 201 166 164 47 6 350 355
332 320 307 290 254 238 234 235 235 227 234 232 231 226 216 234 251 272 274 296 302 303 293 306 303 305 301 308 302 278 246 209 194 207 185 202 171 220 252 159 221 252 322
337 331 314 297 276 246 236 234 233 229 233 229 230 234 226 236 238 254 257 269 274 277 284 304 305 310 301 308 303 269 242 217 206 204 202 207 201 209 243 286 316 200 245
344 335 330 314 291 248 233 232 235 237 227 232 229 230 231 235 236 243 254 254 251 268 296 301 308 300 303 330 286 224 213 228 226 228 223 225 212 226 264 269 288 312 307
346 346 339 326 304 261 249 254 265 271 259 245 227 225 228 230 231 244 253 258 265 279 261 277 295 309 277 314 311 284 262 181 224 226 213 232 235 227 245 244 277 283 289
354 348 340 335 319 289 255 263 256 262 258 231 223 225 220 235 233 241 250 261 265 269 279 290 283 281 298 271 281 305 284 296 335 154 213 215 228 234 253 265 281 281 284
346 340 338 336 329 303 278 263 263 266 264 244 242 213 200 218 226 243 263 266 274 277 274 274 263 276 268 274 257 223 277 314 309 292 168 202 207 231 264 273 290 295 289
339 335 334 332 327 316 288 267 273 263 274 288 247 236 226 213 233 233 252 255 260 263 275 281 281 257 264 270 274 274 244 251 245 255 281 282 279 256 265 268 307 284 283
340 335 331 328 319 315 303 289 279 274 274 262 247 241 231 227 215 223 235 250 260 268 268 281 283 275 274 277 276 274 260 263 265 248 259 267 279 288 279 276 278 275 290